Location: ???????
(55.5917°N, 37.3214°E)
Time: 18:22:44
(UTC+00:00)

IDEFIX/ARIANE 42P - Pass Details

Date: 14 July 2020
Orbit: 784 x 804 km, 98.4° (Epoch: 07 August)

Event Time Altitude Azimuth Distance (km) Brightness Sun altitude
Rises 00:09:37 0° 20° (NNE) 3,299 7.6 -6.2°
Reaches altitude 10° 00:12:09 10° 29° (NNE) 2,363 6.8 -6.0°
Maximum altitude 00:16:56 36° 95° (E) 1,238 4.0 -5.6°
Drops below altitude 10° 00:21:40 10° 162° (SSE) 2,341 4.7 -5.2°
Sets 00:24:10 0° 171° (S) 3,265 5.4 -5.0°
